TimeCDT,TemperatureF,Dew PointF,Humidity,Sea Level PressureIn,VisibilityMPH,Wind Direction,Wind SpeedMPH,Gust SpeedMPH,PrecipitationIn,Events,Conditions,WindDirDegrees,DateUTC
12:53 AM,82.9,50.0,32,29.70,10.0,South,18.4,-,N/A,,Clear,190,2013-06-11 05:53:00
1:53 AM,81.0,50.0,34,29.70,10.0,South,19.6,-,N/A,,Clear,190,2013-06-11 06:53:00
2:53 AM,78.1,50.0,37,29.71,10.0,South,18.4,-,N/A,,Clear,190,2013-06-11 07:53:00
3:53 AM,78.1,50.0,37,29.72,10.0,SSW,19.6,-,N/A,,Clear,200,2013-06-11 08:53:00
4:53 AM,77.0,50.0,39,29.72,10.0,SSW,20.7,-,N/A,,Clear,200,2013-06-11 09:53:00
5:53 AM,75.0,48.9,40,29.73,10.0,SSW,20.7,26.5,N/A,,Clear,210,2013-06-11 10:53:00
6:53 AM,75.0,48.9,40,29.74,10.0,South,13.8,-,N/A,,Clear,190,2013-06-11 11:53:00
7:53 AM,75.9,51.1,42,29.76,10.0,South,9.2,-,N/A,,Clear,190,2013-06-11 12:53:00
8:53 AM,82.0,51.1,34,29.75,10.0,SSW,19.6,-,N/A,,Clear,210,2013-06-11 13:53:00
9:53 AM,89.1,48.9,25,29.74,10.0,SW,23.0,29.9,N/A,,Clear,220,2013-06-11 14:53:00
10:53 AM,93.9,48.9,21,29.72,10.0,SSW,17.3,28.8,N/A,,Clear,210,2013-06-11 15:53:00
11:53 AM,97.0,50.0,20,29.70,10.0,South,23.0,31.1,N/A,,Clear,190,2013-06-11 16:53:00
12:53 PM,100.9,48.9,17,29.69,10.0,SSW,25.3,34.5,N/A,,Clear,200,2013-06-11 17:53:00
1:53 PM,104.0,46.9,15,29.66,10.0,SSW,23.0,35.7,N/A,,Clear,210,2013-06-11 18:53:00
2:53 PM,105.1,48.0,15,29.64,10.0,SSW,27.6,35.7,N/A,,Clear,200,2013-06-11 19:53:00
3:53 PM,107.1,46.0,13,29.62,10.0,SSW,28.8,36.8,N/A,,Clear,200,2013-06-11 20:53:00
4:53 PM,105.1,48.0,15,29.62,10.0,South,21.9,33.4,N/A,,Clear,190,2013-06-11 21:53:00
5:53 PM,104.0,48.0,15,29.60,10.0,South,26.5,40.3,N/A,,Clear,190,2013-06-11 22:53:00
6:53 PM,100.9,48.0,17,29.59,10.0,South,24.2,38.0,N/A,,Clear,190,2013-06-11 23:53:00
7:53 PM,98.1,46.9,18,29.58,10.0,South,24.2,32.2,N/A,,Clear,180,2013-06-12 00:53:00
8:53 PM,93.9,45.0,18,29.59,10.0,South,21.9,29.9,N/A,,Clear,180,2013-06-12 01:53:00
9:53 PM,90.0,45.0,21,29.61,10.0,South,21.9,28.8,N/A,,Clear,180,2013-06-12 02:53:00
10:53 PM,86.0,45.0,24,29.65,10.0,South,17.3,-,N/A,,Clear,180,2013-06-12 03:53:00
11:53 PM,82.0,46.9,29,29.66,10.0,South,19.6,-,N/A,,Clear,190,2013-06-12 04:53:00